星链-37012(STARLINK-37012)

导读 | 豆包AI

STARLINK-37012(NORAD编号68221)是美国太空探索技术公司(SpaceX)星链(Starlink)项目的低轨互联网卫星,于2024年12月8日发射入轨,截至2026年4月已在轨飞行超过480天。该卫星属于Starlink V1.0平台,运行在近地点约355公里、远地点约357公里的近地轨道,轨道倾角43.001°,周期约91.66分钟,旨在为全球提供高速低延迟卫星互联网服务,支持偏远地区通信、行业应用等场景,是星链全球卫星互联网组网的组成部分。

基本信息
目录编号:
68221
目录名称:
STARLINK-37012
国际标识:
2026-053Q
轨道中心:
EARTH
卫星名称:
星链-37012
卫星全名:
星链-37012(STARLINK-37012)
卫星状态:
在轨 (已飞行28 天)
发射日期:
2026-03-17 UTC
国别 :
美国 (US)
星等 :
--
轨道信息
数据来源 国际轨道数据
星历时间: 2026-04-14T20:00:02+0800
8小时前
查看轨道信息
半长轴: 6796.691km
偏心率: 0.0001576
轨道倾角: 97.298°
近地点辐角 106.789°
升交点赤经 340.486°
平近点角 236.250°
近地点: 417.482km
远地点: 419.626km
周期: 92.941分钟
每日圈数: 15.493748
详细信息
固有亮度:
5
最大亮度:
2.5
卫星平台:
Starlink V1.0
覆盖范围:
全球
运营商:
太空探索技术公司
运营商所在国:
美国
制造商(研发单位):
太空探索技术公司
制造商所在国:
美国
使用方式:
暂无
卫星简介
Starlink 计划是 SpaceX 推出的全球卫星互联网项目,通过发射低轨道卫星,为全球尤其是偏远地区提供高速、低延迟的互联网服务。自 2019 年起,Starlink 已部署数千颗卫星,旨在缩小全球数字鸿沟,推动互联网普及。该项目还为军事、航空等行业提供通信支持,带来广泛经济效益。
2D轨道图
3D轨道图
轨道高度分析图
轨道倾角分析图
轨道综合分析图
查看轨道综合分析图